• In United Kingdom
  • List of Countries
  • For 7 days
  • Water Temperature
  • Satellite Maps
  • Weather Map
  • Weather Widgets
  • user-avatar
    Login

    Hourly Weather Yeghegnadzor

    Today, 21 September, Friday

    Time Temperature Precipitation Wind Pressure Humidity
    00:00 +17°C° 0.3 mm 2 mps 656 mmHg 77%
    01:00 +17°C° 0.2 mm 2 mps 656 mmHg 78%
    02:00 +18°C° 0.2 mm 1 mps 656 mmHg 78%
    03:00 +16°C° 0.2 mm 1 mps 656 mmHg 79%
    04:00 +16°C° 0.1 mm 1 mps 656 mmHg 80%
    05:00 +16°C° 0.1 mm 1 mps 655 mmHg 80%
    06:00 +15°C° 0.1 mm 1 mps 655 mmHg 81%
    07:00 +18°C° 0 mm 1 mps 656 mmHg 73%
    08:00 +20°C° 0 mm 1 mps 656 mmHg 65%
    09:00 +22°C° 0 mm 1 mps 657 mmHg 58%
    10:00 +23°C° 0.5 mm 2 mps 657 mmHg 54%
    11:00 +24°C° 0.5 mm 2 mps 657 mmHg 50%
    12:00 +24°C° 0.5 mm 2 mps 656 mmHg 47%
    13:00 +25°C° 0.7 mm 2 mps 656 mmHg 45%
    14:00 +25°C° 0.7 mm 2 mps 656 mmHg 44%
    15:00 +25°C° 0.7 mm 2 mps 656 mmHg 42%
    16:00 +24°C° 0.3 mm 2 mps 655 mmHg 46%
    17:00 +23°C° 0.3 mm 1 mps 655 mmHg 50%
    18:00 +22°C° 0.3 mm 1 mps 655 mmHg 54%
    19:00 +21°C° 0.2 mm 1 mps 655 mmHg 57%
    20:00 +20°C° 0.2 mm 1 mps 655 mmHg 60%
    21:00 +20°C° 0.2 mm 1 mps 655 mmHg 63%
    22:00 +19°C° 0.1 mm 1 mps 655 mmHg 64%
    23:00 +19°C° 0.1 mm 1 mps 656 mmHg 65%

    Tomorrow, 22 September, Saturday

    Time Temperature Precipitation Wind Pressure Humidity
    00:00 +19°C° 0.1 mm 1 mps 656 mmHg 66%
    01:00 +18°C° 0.1 mm 1 mps 656 mmHg 66%
    02:00 +18°C° 0.1 mm 1 mps 655 mmHg 67%
    03:00 +16°C° 0.1 mm 1 mps 655 mmHg 67%
    04:00 +16°C° 0.2 mm 1 mps 655 mmHg 68%
    05:00 +16°C° 0.2 mm 1 mps 655 mmHg 68%
    06:00 +16°C° 0.2 mm 1 mps 655 mmHg 68%
    07:00 +19°C° 0.1 mm 1 mps 656 mmHg 61%
    08:00 +20°C° 0.1 mm 1 mps 656 mmHg 54%
    09:00 +22°C° 0.1 mm 1 mps 657 mmHg 46%
    10:00 +23°C° 0.2 mm 2 mps 657 mmHg 42%
    11:00 +25°C° 0.2 mm 2 mps 657 mmHg 39%
    12:00 +26°C° 0.2 mm 2 mps 657 mmHg 35%
    13:00 +26°C° 0.5 mm 2 mps 657 mmHg 34%
    14:00 +26°C° 0.5 mm 2 mps 656 mmHg 33%
    15:00 +26°C° 0.5 mm 2 mps 656 mmHg 32%
    16:00 +25°C° 0.5 mm 2 mps 656 mmHg 38%
    17:00 +23°C° 0.5 mm 1 mps 655 mmHg 45%
    18:00 +22°C° 0.5 mm 1 mps 655 mmHg 51%
    19:00 +21°C° 0.4 mm 1 mps 655 mmHg 54%
    20:00 +21°C° 0.4 mm 1 mps 655 mmHg 56%
    21:00 +20°C° 0.4 mm 1 mps 656 mmHg 59%
    22:00 +20°C° 0.2 mm 1 mps 655 mmHg 61%
    23:00 +18°C° 0.2 mm 2 mps 655 mmHg 63%

    Day after tomorrow, 23 September, Sunday

    Time Temperature Precipitation Wind Pressure Humidity
    00:00 +18°C° 0.2 mm 2 mps 655 mmHg 65%
    01:00 +17°C° 0.1 mm 2 mps 655 mmHg 66%
    02:00 +18°C° 0.1 mm 1 mps 655 mmHg 66%
    03:00 +18°C° 0.1 mm 1 mps 655 mmHg 66%
    04:00 +16°C° 0 mm 1 mps 654 mmHg 66%
    05:00 +16°C° 0 mm 1 mps 654 mmHg 66%
    06:00 +16°C° 0 mm 1 mps 654 mmHg 66%
    07:00 +18°C° 0 mm 1 mps 655 mmHg 58%
    08:00 +20°C° 0 mm 1 mps 655 mmHg 51%
    09:00 +22°C° 0 mm 1 mps 656 mmHg 43%
    10:00 +23°C° 0 mm 2 mps 656 mmHg 39%
    11:00 +24°C° 0 mm 2 mps 656 mmHg 36%
    12:00 +26°C° 0 mm 2 mps 655 mmHg 33%
    13:00 +26°C° 0 mm 2 mps 655 mmHg 31%
    14:00 +26°C° 0 mm 2 mps 655 mmHg 30%
    15:00 +26°C° 0 mm 2 mps 654 mmHg 29%
    16:00 +25°C° 0.1 mm 2 mps 654 mmHg 33%
    17:00 +23°C° 0.1 mm 1 mps 653 mmHg 37%
    18:00 +22°C° 0.1 mm 1 mps 653 mmHg 41%
    19:00 +21°C° 0.3 mm 1 mps 653 mmHg 44%
    20:00 +20°C° 0.3 mm 1 mps 654 mmHg 48%
    21:00 +20°C° 0.3 mm 1 mps 654 mmHg 52%
    22:00 +19°C° 0.2 mm 1 mps 654 mmHg 53%
    23:00 +19°C° 0.2 mm 1 mps 654 mmHg 55%

    24 September, Monday

    Time Temperature Precipitation Wind Pressure Humidity
    00:00 +18°C° 0.2 mm 1 mps 654 mmHg 56%
    01:00 +18°C° 0 mm 1 mps 654 mmHg 59%
    02:00 +16°C° 0 mm 1 mps 654 mmHg 62%
    03:00 +16°C° 0 mm 1 mps 654 mmHg 65%
    04:00 +15°C° 0 mm 1 mps 654 mmHg 67%
    05:00 +15°C° 0 mm 1 mps 654 mmHg 69%
    06:00 +14°C° 0 mm 1 mps 654 mmHg 72%
    07:00 +16°C° 0 mm 1 mps 655 mmHg 64%
    08:00 +18°C° 0 mm 2 mps 655 mmHg 56%
    09:00 +20°C° 0 mm 2 mps 656 mmHg 48%
    10:00 +21°C° 0 mm 2 mps 656 mmHg 43%
    11:00 +23°C° 0 mm 2 mps 656 mmHg 37%
    12:00 +24°C° 0 mm 2 mps 656 mmHg 32%
    13:00 +24°C° 0 mm 2 mps 655 mmHg 31%
    14:00 +25°C° 0 mm 2 mps 655 mmHg 31%
    15:00 +25°C° 0 mm 2 mps 655 mmHg 30%
    16:00 +23°C° 0 mm 2 mps 655 mmHg 35%
    17:00 +21°C° 0 mm 2 mps 655 mmHg 41%
    18:00 +20°C° 0 mm 1 mps 655 mmHg 46%
    19:00 +20°C° 0 mm 1 mps 655 mmHg 50%
    20:00 +19°C° 0 mm 1 mps 655 mmHg 55%
    21:00 +18°C° 0 mm 1 mps 656 mmHg 59%
    22:00 +18°C° 0 mm 1 mps 655 mmHg 61%
    23:00 +18°C° 0 mm 1 mps 655 mmHg 63%

    25 September, Tuesday

    Time Temperature Precipitation Wind Pressure Humidity
    00:00 +16°C° 0 mm 1 mps 655 mmHg 64%
    01:00 +16°C° 0 mm 1 mps 655 mmHg 62%
    02:00 +16°C° 0 mm 1 mps 655 mmHg 59%
    03:00 +16°C° 0 mm 1 mps 654 mmHg 57%
    04:00 +15°C° 0 mm 1 mps 654 mmHg 55%
    05:00 +15°C° 0 mm 1 mps 654 mmHg 52%
    06:00 +15°C° 0 mm 1 mps 654 mmHg 50%
    07:00 +18°C° 0 mm 1 mps 655 mmHg 44%
    08:00 +20°C° 0 mm 1 mps 655 mmHg 38%
    09:00 +23°C° 0 mm 2 mps 656 mmHg 32%
    10:00 +24°C° 0 mm 2 mps 656 mmHg 30%
    11:00 +25°C° 0 mm 2 mps 655 mmHg 28%
    12:00 +26°C° 0 mm 2 mps 655 mmHg 26%
    13:00 +27°C° 0 mm 2 mps 655 mmHg 25%
    14:00 +27°C° 0 mm 2 mps 654 mmHg 24%
    15:00 +27°C° 0 mm 2 mps 654 mmHg 24%
    16:00 +26°C° 0 mm 2 mps 653 mmHg 27%
    17:00 +24°C° 0 mm 1 mps 653 mmHg 31%
    18:00 +22°C° 0 mm 1 mps 652 mmHg 35%
    19:00 +22°C° 0 mm 1 mps 653 mmHg 35%
    20:00 +21°C° 0 mm 1 mps 653 mmHg 35%
    21:00 +21°C° 0 mm 1 mps 653 mmHg 35%
    22:00 +20°C° 0 mm 1 mps 653 mmHg 34%
    23:00 +20°C° 0 mm 1 mps 653 mmHg 33%

    26 September, Wednesday

    Time Temperature Precipitation Wind Pressure Humidity
    00:00 +20°C° 0 mm 1 mps 652 mmHg 32%
    01:00 +19°C° 0 mm 1 mps 652 mmHg 33%
    02:00 +19°C° 0 mm 1 mps 652 mmHg 33%
    03:00 +19°C° 0 mm 1 mps 652 mmHg 34%
    04:00 +18°C° 0 mm 1 mps 652 mmHg 35%
    05:00 +18°C° 0 mm 1 mps 652 mmHg 37%
    06:00 +16°C° 0 mm 1 mps 652 mmHg 38%
    07:00 +20°C° 0 mm 1 mps 653 mmHg 35%
    08:00 +21°C° 0 mm 2 mps 654 mmHg 32%
    09:00 +24°C° 0 mm 2 mps 654 mmHg 29%
    10:00 +25°C° 0 mm 2 mps 654 mmHg 28%
    11:00 +26°C° 0 mm 2 mps 654 mmHg 26%
    12:00 +27°C° 0 mm 2 mps 654 mmHg 24%
    13:00 +27°C° 0 mm 2 mps 654 mmHg 24%
    14:00 +27°C° 0 mm 2 mps 654 mmHg 24%
    15:00 +27°C° 0 mm 2 mps 653 mmHg 24%
    16:00 +26°C° 0 mm 2 mps 653 mmHg 31%
    17:00 +24°C° 0 mm 2 mps 653 mmHg 37%
    18:00 +22°C° 0 mm 1 mps 653 mmHg 43%
    19:00 +20°C° 0 mm 2 mps 653 mmHg 49%
    20:00 +19°C° 0 mm 2 mps 653 mmHg 55%
    21:00 +19°C° 0 mm 2 mps 653 mmHg 61%
    22:00 +18°C° 0 mm 2 mps 653 mmHg 63%
    23:00 +18°C° 0 mm 2 mps 653 mmHg 65%
    Show more